FW5423 Weather Reports


Display with metric or nautical units.
time (UTC)temp
F
wind
direction
speed
MPH
gust
MPH
rain 1hr
in
rain 24hr
in
rain mn
in
humidity
%
barometer
mb
20260508220519 59 359 18.0 26.0 0.00 0.22 0.03 98 1006.7
20260508220016 59 359 18.0 26.0 0.00 0.22 0.03 98 1006.6
20260508215514 59 359 14.0 23.0 0.00 0.22 0.03 98 1006.4
20260508215016 59 359 15.0 23.0 0.00 0.22 0.03 98 1006.3
20260508214516 59 359 13.0 22.0 0.00 0.22 0.03 98 1006.1
20260508214011 59 359 15.0 23.0 0.00 0.22 0.03 98 1005.9
20260508213511 59 359 15.0 23.0 0.00 0.22 0.03 98 1005.9
20260508213015 59 359 14.0 22.0 0.00 0.22 0.03 98 1005.8
20260508212011 59 359 15.0 22.0 0.00 0.22 0.03 97 1005.7
20260508211516 59 359 12.0 21.0 0.00 0.22 0.03 97 1005.7
20260508211011 59 359 14.0 21.0 0.00 0.22 0.03 97 1005.5
20260508210511 59 359 12.0 23.0 0.00 0.22 0.03 97 1005.3
20260508210013 60 359 16.0 23.0 0.00 0.22 0.03 97 1005.1
20260508205510 59 359 15.0 23.0 0.00 0.22 0.03 97 1005.1
20260508205015 59 359 17.0 23.0 0.00 0.22 0.03 97 1005.1
20260508204511 59 359 14.0 24.0 0.00 0.22 0.03 97 1005.1
20260508204010 59 359 17.0 26.0 0.00 0.22 0.03 97 1005.0
20260508203517 59 359 15.0 26.0 0.00 0.22 0.03 97 1005.3
20260508203012 59 359 15.0 26.0 0.00 0.22 0.03 97 1005.0
20260508202010 59 359 16.0 25.0 0.00 0.22 0.03 97 1005.0
20260508201509 59 359 17.0 25.0 0.00 0.22 0.03 98 1004.8
20260508201009 59 359 13.0 20.0 0.00 0.22 0.03 97 1004.8
20260508200509 59 359 11.0 17.0 0.00 0.22 0.03 97 1004.6
20260508200027 59 359 12.0 26.0 0.01 0.22 0.03 97 1004.7
20260508195510 59 359 14.0 26.0 0.01 0.22 0.03 96 1004.9
20260508195009 59 359 17.0 27.0 0.02 0.22 0.03 96 1004.9
20260508194513 59 359 20.0 27.0 0.02 0.22 0.03 96 1004.8
20260508194014 59 359 18.0 28.0 0.02 0.22 0.03 97 1004.6
20260508193507 59 359 19.0 29.0 0.02 0.22 0.03 97 1004.6
20260508193007 59 359 21.0 31.0 0.03 0.22 0.03 97 1004.3
20260508192015 59 359 18.0 31.0 0.03 0.22 0.03 97 1003.8
20260508191512 59 359 21.0 31.0 0.03 0.22 0.03 97 1003.9
20260508191010 59 359 19.0 30.0 0.03 0.22 0.03 97 1004.2
20260508190513 58 359 20.0 37.0 0.03 0.22 0.03 97 1004.4
20260508190011 58 359 24.0 39.0 0.02 0.21 0.02 97 1004.7
20260508185506 58 359 26.0 39.0 0.02 0.21 0.02 97 1004.7
20260508185005 58 359 23.0 36.0 0.02 0.21 0.02 97 1005.0
20260508184504 58 359 22.0 29.0 0.02 0.20 0.02 97 1005.2
20260508184003 58 359 21.0 29.0 0.02 0.20 0.02 97 1005.5
20260508183503 58 359 22.0 29.0 0.01 0.20 0.01 97 1005.8
20260508183002 58 359 20.0 31.0 0.00 0.19 0.00 97 1005.8
20260508181036 58 359 22.0 39.0 0.08 0.24 0.22 97 1006.2
20260508180534 58 359 24.0 39.0 0.06 0.22 0.20 97 1006.3
20260508180035 58 359 23.0 31.0 0.06 0.21 0.20 97 1006.2
20260508175535 58 359 21.0 31.0 0.06 0.20 0.19 97 1006.2
20260508174536 58 359 21.0 33.0 0.07 0.20 0.18 97 1005.8
20260508174036 58 359 19.0 32.0 0.08 0.19 0.17 97 1005.6
20260508173535 58 359 19.0 30.0 0.09 0.19 0.17 97 1005.5
20260508173036 58 359 20.0 30.0 0.10 0.18 0.17 97 1005.4
20260508172536 58 359 22.0 31.0 0.10 0.17 0.16 97 1005.6
20260508172033 58 359 21.0 31.0 0.10 0.17 0.15 97 1005.6
20260508171536 58 359 20.0 33.0 0.11 0.16 0.14 97 1005.7
20260508171032 58 359 22.0 33.0 0.11 0.16 0.14 97 1005.5
20260508170532 58 359 22.0 30.0 0.13 0.16 0.14 97 1005.7
20260508170032 58 359 19.0 30.0 0.12 0.15 0.13 97 1005.7
20260508165532 58 359 21.0 31.0 0.12 0.15 0.13 97 1005.9
20260508164530 58 296 21.0 32.0 0.11 0.14 0.13 96 1006.1
20260508164029 58 359 21.0 30.0 0.09 0.12 0.10 96 1006.1
20260508163528 58 359 21.0 36.0 0.07 0.10 0.09 96 1006.0
20260508163029 58 359 21.0 39.0 0.06 0.09 0.08 96 1006.2
20260508162527 58 359 22.0 40.0 0.05 0.08 0.06 96 1006.1
20260508162031 59 359 27.0 40.0 0.04 0.07 0.06 96 1005.9
20260508161534 59 359 29.0 39.0 0.02 0.06 0.04 95 1005.6
20260508161027 59 359 28.0 39.0 0.02 0.05 0.03 95 1005.6
20260508160525 59 283 27.0 39.0 0.01 0.04 0.02 96 1005.3
20260508160030 60 359 28.0 39.0 0.00 0.03 0.02 95 1005.2
20260508155528 60 359 26.0 42.0 0.00 0.03 0.02 95 1005.1
20260508154529 60 359 28.0 44.0 0.00 0.03 0.02 94 1004.8
20260508154028 60 359 27.0 44.0 0.00 0.03 0.02 94 1004.8
20260508153528 60 359 27.0 41.0 0.00 0.03 0.02 95 1004.9
20260508153028 60 359 28.0 41.0 0.00 0.03 0.02 95 1004.8
20260508152527 61 359 27.0 42.0 0.00 0.03 0.02 95 1005.0
20260508152029 61 359 29.0 42.0 0.00 0.03 0.02 95 1004.8
20260508151527 61 359 27.0 44.0 0.00 0.03 0.02 95 1004.9
20260508151030 61 359 29.0 42.0 0.00 0.03 0.02 95 1004.5
20260508150527 61 359 28.0 39.0 0.00 0.03 0.02 95 1004.6
20260508150033 61 359 28.0 47.0 0.00 0.03 0.02 95 1004.5
20260508145526 61 359 31.0 47.0 0.00 0.03 0.02 95 1004.6
20260508144540 61 359 26.0 43.0 0.00 0.03 0.02 95 1004.6
20260508144028 61 359 32.0 44.0 0.00 0.03 0.02 95 1004.6
20260508143531 61 359 33.0 44.0 0.00 0.03 0.02 95 1004.4
20260508143037 61 359 32.0 48.0 0.00 0.03 0.02 95 1005.1
20260508142528 61 359 31.0 48.0 0.00 0.03 0.02 95 1004.7
20260508142028 61 359 30.0 46.0 0.00 0.03 0.02 95 1004.3
20260508141528 61 359 31.0 47.0 0.01 0.03 0.02 95 1004.1
20260508141025 61 359 32.0 47.0 0.01 0.03 0.02 95 1004.4
20260508140526 61 359 36.0 47.0 0.01 0.03 0.02 95 1004.4
20260508140035 61 359 31.0 45.0 0.01 0.03 0.02 96 1004.9
20260508135525 60 359 27.0 45.0 0.01 0.03 0.02 96 1004.9
20260508134519 60 359 27.0 39.0 0.01 0.03 0.02 97 1005.3
20260508134018 60 359 25.0 36.0 0.01 0.03 0.02 97 1005.7
20260508133518 60 359 27.0 37.0 0.01 0.03 0.02 97 1005.6
20260508133018 60 359 27.0 37.0 0.01 0.03 0.02 97 1005.6
20260508132517 60 359 25.0 40.0 0.01 0.03 0.02 97 1005.9
20260508132014 60 359 27.0 40.0 0.01 0.03 0.02 97 1006.0
20260508131515 60 359 27.0 40.0 0.01 0.03 0.02 97 1006.0
20260508131017 60 359 27.0 37.0 0.00 0.02 0.01 97 1006.4
20260508130512 60 359 21.0 35.0 0.00 0.02 0.01 97 1006.4
20260508130016 60 359 22.0 35.0 0.00 0.02 0.01 97 1006.1
20260508125512 60 359 24.0 36.0 0.00 0.02 0.01 96 1006.1
20260508124516 60 359 21.0 32.0 0.00 0.02 0.01 96 1006.3
20260508124015 60 359 22.0 32.0 0.00 0.02 0.01 96 1006.2
20260508123515 60 359 21.0 33.0 0.00 0.02 0.01 96 1006.3
20260508123013 60 251 21.0 33.0 0.01 0.02 0.01 96 1006.4
20260508122513 60 359 21.0 30.0 0.01 0.02 0.01 96 1006.6
20260508122013 60 359 17.0 31.0 0.01 0.02 0.01 96 1006.5
20260508121519 60 359 21.0 32.0 0.01 0.02 0.01 97 1006.4
20260508121013 59 359 23.0 34.0 0.01 0.02 0.01 97 1006.4
20260508120513 59 359 19.0 34.0 0.01 0.02 0.01 97 1006.3
20260508120018 59 359 18.0 29.0 0.01 0.02 0.01 97 1006.5
20260508115512 59 359 21.0 27.0 0.01 0.02 0.01 97 1006.6
20260508114524 58 359 16.0 26.0 0.01 0.02 0.01 97 1006.8
20260508114006 58 359 18.0 27.0 0.01 0.02 0.01 97 1006.9
20260508113506 58 359 19.0 29.0 0.01 0.02 0.01 97 1007.0
20260508113006 58 359 21.0 29.0 0.02 0.02 0.01 97 1006.8
20260508112503 59 359 15.0 24.0 0.02 0.02 0.00 97 1007.0
20260508112003 58 359 15.0 23.0 0.02 0.02 0.00 97 1006.9
20260508111504 58 359 18.0 23.0 0.02 0.02 0.00 97 1006.9
20260508111001 58 359 15.0 24.0 0.02 0.02 0.00 97 1007.0
20260508110600 58 359 16.0 24.0 0.02 0.02 0.00 96 1006.9
20260508110502 58 359 16.0 24.0 0.02 0.02 0.00 96 1006.8
20260508110059 59 359 17.0 24.0 0.02 0.02 0.00 96 1006.7
20260508105558 59 359 16.0 23.0 0.02 0.02 0.00 96 1006.5
20260508104602 59 359 16.0 26.0 0.02 0.02 0.00 96 1006.5
20260508104057 59 359 16.0 23.0 0.02 0.02 0.00 96 1006.7
20260508103556 60 270 14.0 22.0 0.02 0.02 0.00 95 1006.6
20260508103104 60 359 14.0 25.0 0.02 0.02 0.02 95 1006.6
20260508102553 60 359 17.0 25.0 0.00 0.00 0.00 94 1006.7
20260508102053 60 359 16.0 25.0 0.00 0.00 0.00 93 1006.7
20260508101553 60 359 14.0 24.0 0.00 0.00 0.00 93 1006.6
20260508101052 61 359 14.0 28.0 0.00 0.00 0.00 93 1006.6
20260508100550 61 235 16.0 28.0 0.00 0.00 0.00 92 1006.5
20260508100049 61 359 17.0 27.0 0.00 0.00 0.00 91 1006.5
20260508095547 62 8 19.0 28.0 0.00 0.00 0.00 90 1006.6
20260508094544 63 359 15.0 28.0 0.00 0.00 0.00 89 1006.8
20260508094043 64 359 17.0 31.0 0.00 0.00 0.00 86 1006.6
20260508093546 65 359 22.0 37.0 0.00 0.00 0.00 84 1006.2
20260508093044 65 359 25.0 37.0 0.00 0.00 0.00 84 1005.1
20260508092543 65 259 25.0 35.0 0.00 0.00 0.00 84 1005.0
20260508092043 65 359 22.0 30.0 0.00 0.00 0.00 84 1004.9
20260508091546 65 359 20.0 36.0 0.00 0.00 0.00 84 1004.8
20260508091043 65 359 25.0 37.0 0.00 0.00 0.00 83 1004.7
20260508090542 65 359 26.0 37.0 0.00 0.00 0.00 83 1004.5
20260508090046 65 359 23.0 37.0 0.00 0.00 0.00 82 1004.5
20260508085543 66 359 21.0 31.0 0.00 0.00 0.00 82 1004.4
20260508084542 66 359 26.0 37.0 0.00 0.00 0.00 80 1004.3
20260508084042 66 359 21.0 34.0 0.00 0.00 0.00 80 1004.3
20260508083543 67 359 22.0 38.0 0.00 0.00 0.00 79 1004.1
20260508083042 67 246 21.0 32.0 0.00 0.00 0.00 78 1004.2
20260508082542 67 359 20.0 33.0 0.00 0.00 0.00 77 1003.6
20260508082042 67 359 18.0 37.0 0.00 0.00 0.00 77 1003.3
20260508081542 68 359 20.0 37.0 0.00 0.00 0.00 76 1003.2
20260508081041 68 359 23.0 40.0 0.00 0.00 0.00 76 1003.0
20260508080542 67 359 28.0 40.0 0.00 0.00 0.00 77 1002.9
20260508080041 67 359 24.0 40.0 0.00 0.00 0.00 78 1002.8
20260508075541 67 359 25.0 40.0 0.00 0.00 0.00 77 1002.6
20260508074542 67 359 25.0 36.0 0.00 0.00 0.00 78 1002.4
20260508074042 67 359 27.0 44.0 0.00 0.00 0.00 78 1002.5
20260508073541 67 359 30.0 44.0 0.00 0.00 0.00 77 1002.6
20260508073040 68 359 28.0 44.0 0.00 0.00 0.00 77 1002.9
20260508072539 67 359 27.0 39.0 0.00 0.00 0.00 78 1003.0
20260508072039 67 359 26.0 40.0 0.00 0.00 0.00 79 1003.2
20260508071541 67 359 25.0 40.0 0.00 0.00 0.00 79 1003.2
20260508071039 67 359 26.0 38.0 0.00 0.00 0.00 79 1003.3
20260508070538 67 359 27.0 40.0 0.00 0.00 0.00 79 1003.4
20260508070038 67 359 26.0 40.0 0.00 0.00 0.00 80 1003.4
20260508065538 67 359 28.0 41.0 0.00 0.00 0.00 79 1003.5
20260508064556 66 359 26.0 39.0 0.00 0.00 0.00 80 1003.7
20260508064037 66 359 27.0 38.0 0.00 0.00 0.00 80 1004.0
20260508063535 66 359 24.0 45.0 0.00 0.00 0.00 81 1004.0
20260508063036 66 359 27.0 45.0 0.00 0.00 0.00 81 1004.1
20260508062534 65 359 24.0 33.0 0.00 0.00 0.00 82 1004.0
20260508062033 65 359 24.0 33.0 0.00 0.00 0.00 83 1004.2
20260508061534 65 359 23.0 34.0 0.00 0.00 0.00 83 1004.1
20260508061034 65 359 21.0 34.0 0.00 0.00 0.00 83 1004.5
20260508060532 65 359 21.0 32.0 0.00 0.00 0.00 84 1004.4
20260508060037 65 359 21.0 34.0 0.00 0.00 0.00 84 1004.6
20260508055532 65 359 20.0 35.0 0.00 0.00 0.00 84 1004.7
20260508054555 65 359 24.0 33.0 0.00 0.00 0.00 83 1004.8
20260508054034 65 359 23.0 36.0 0.00 0.00 0.00 83 1004.9
20260508053532 65 359 21.0 36.0 0.00 0.00 0.00 84 1005.0
20260508053032 65 359 22.0 31.0 0.00 0.00 0.00 83 1005.0
20260508052532 65 359 23.0 29.0 0.00 0.00 0.00 83 1005.1
20260508052033 65 359 19.0 30.0 0.00 0.00 0.00 83 1005.3
20260508051533 66 359 19.0 32.0 0.00 0.00 0.00 82 1005.2
20260508051032 66 359 20.0 32.0 0.00 0.00 0.00 81 1005.5
20260508050534 66 359 21.0 32.0 0.00 0.00 0.00 80 1005.3
20260508050037 67 359 23.0 32.0 0.00 0.00 0.00 80 1005.4
20260508045531 67 359 21.0 31.0 0.00 0.00 0.00 80 1005.5
20260508044530 66 359 19.0 31.0 0.00 0.00 0.00 80 1005.5
20260508044029 66 359 21.0 31.0 0.00 0.00 0.00 81 1005.5
20260508043529 66 359 21.0 29.0 0.00 0.00 0.00 81 1005.4
20260508043041 66 359 21.0 27.0 0.00 0.00 0.00 82 1005.5
20260508042531 66 359 19.0 27.0 0.00 0.00 0.00 83 1005.4
20260508042029 65 359 19.0 26.0 0.00 0.00 0.00 83 1005.4
20260508041534 65 359 19.0 25.0 0.00 0.00 0.00 84 1005.3
20260508041029 65 359 18.0 25.0 0.00 0.00 0.00 85 1005.3
20260508040531 64 359 17.0 25.0 0.00 0.00 0.00 85 1005.3
20260508040029 64 359 19.0 25.0 0.00 0.00 0.00 86 1005.4
20260508035532 64 359 17.0 25.0 0.00 0.00 0.00 87 1005.4
20260508034533 64 359 18.0 26.0 0.00 0.00 0.00 86 1005.5
20260508034034 64 359 17.0 26.0 0.00 0.00 0.00 86 1005.7
20260508033531 65 359 18.0 24.0 0.00 0.00 0.00 85 1005.7
20260508033033 65 359 18.0 26.0 0.00 0.00 0.00 86 1005.8
20260508032531 65 359 18.0 26.0 0.00 0.00 0.00 86 1005.8
20260508032031 64 359 16.0 24.0 0.00 0.00 0.00 87 1006.1
20260508031531 64 359 16.0 24.0 0.00 0.00 0.00 87 1006.0
20260508031031 64 359 17.0 26.0 0.00 0.00 0.00 87 1006.1
20260508030531 64 359 17.0 26.0 0.00 0.00 0.00 87 1006.0
20260508030032 64 359 17.0 24.0 0.00 0.00 0.00 87 1006.0
20260508025529 64 359 18.0 24.0 0.00 0.00 0.00 88 1006.0
20260508024538 64 359 17.0 24.0 0.00 0.00 0.00 88 1006.0
20260508024036 64 359 16.0 24.0 0.00 0.00 0.00 88 1006.1
20260508023535 64 359 17.0 27.0 0.00 0.00 0.00 88 1006.1
20260508023035 64 359 17.0 27.0 0.00 0.00 0.00 88 1006.1
20260508022535 64 359 17.0 23.0 0.00 0.00 0.00 87 1006.2
20260508022034 64 359 16.0 24.0 0.00 0.00 0.00 87 1006.2
20260508021534 64 359 17.0 24.0 0.00 0.00 0.00 87 1006.3
20260508021035 64 359 18.0 23.0 0.00 0.00 0.00 88 1006.4
20260508020533 64 359 15.0 23.0 0.00 0.00 0.00 88 1006.4
20260508020034 64 359 16.0 23.0 0.00 0.00 0.00 88 1006.2
20260508015532 64 359 16.0 23.0 0.00 0.00 0.00 88 1006.3
20260508014521 64 359 14.0 21.0 0.00 0.00 0.00 87 1006.5
20260508014023 64 359 14.0 20.0 0.00 0.00 0.00 87 1006.5
20260508013523 64 359 14.0 20.0 0.00 0.00 0.00 87 1006.5
20260508013020 64 359 13.0 22.0 0.00 0.00 0.00 87 1006.4
20260508012522 65 359 14.0 22.0 0.00 0.00 0.00 87 1006.3
20260508012019 65 359 14.0 23.0 0.00 0.00 0.00 87 1006.3
20260508011520 65 359 14.0 23.0 0.00 0.00 0.00 86 1006.3
20260508011018 65 359 15.0 22.0 0.00 0.00 0.00 86 1006.2
20260508010517 65 359 14.0 21.0 0.00 0.00 0.00 86 1006.3
20260508010025 65 359 15.0 22.0 0.00 0.00 0.00 86 1006.3
20260508005515 65 359 14.0 22.0 0.00 0.00 0.00 85 1006.2
20260508004530 66 359 14.0 21.0 0.00 0.00 0.00 85 1006.8
20260508004018 66 359 14.0 19.0 0.00 0.00 0.00 85 1006.8
20260508003517 66 359 13.0 18.0 0.00 0.00 0.00 85 1006.7
20260508003016 66 359 12.0 18.0 0.00 0.00 0.00 84 1006.8
20260508002516 66 359 13.0 20.0 0.00 0.00 0.00 83 1006.8
20260508002016 66 359 12.0 19.0 0.00 0.00 0.00 84 1006.7
20260508001515 66 359 11.0 16.0 0.00 0.00 0.00 84 1006.9
20260508001017 67 359 10.0 18.0 0.00 0.00 0.00 83 1006.8
20260508000524 67 359 11.0 18.0 0.00 0.00 0.00 83 1006.8
20260508000018 67 359 12.0 18.0 0.00 0.00 0.00 83 1006.8
20260507235516 67 359 13.0 19.0 0.00 0.00 0.00 82 1006.6
20260507234522 67 359 13.0 21.0 0.00 0.00 0.00 82 1006.5
20260507234014 67 359 12.0 21.0 0.00 0.00 0.00 82 1006.6
20260507233514 67 359 12.0 21.0 0.00 0.00 0.00 81 1006.5
20260507233023 67 359 13.0 21.0 0.00 0.00 0.00 81 1006.5
20260507232517 67 359 13.0 21.0 0.00 0.00 0.00 81 1006.5
20260507232013 67 359 12.0 20.0 0.00 0.00 0.00 81 1006.5
20260507231513 67 359 12.0 20.0 0.00 0.00 0.00 82 1006.5
20260507231013 67 359 13.0 19.0 0.00 0.00 0.00 82 1006.5
20260507230516 67 359 12.0 19.0 0.00 0.00 0.00 82 1006.5
20260507230013 68 359 13.0 19.0 0.00 0.00 0.00 82 1006.5
20260507225513 68 359 13.0 20.0 0.00 0.00 0.00 82 1006.5
20260507224519 68 359 13.0 21.0 0.00 0.00 0.00 81 1006.5
20260507224012 68 359 13.0 19.0 0.00 0.00 0.00 81 1006.4
20260507223516 68 359 11.0 20.0 0.00 0.00 0.00 82 1006.4
20260507223015 68 359 13.0 20.0 0.00 0.00 0.00 81 1006.3
20260507222523 68 359 12.0 20.0 0.00 0.00 0.00 81 1006.2
20260507222014 68 359 14.0 20.0 0.00 0.00 0.00 81 1006.2
20260507221515 68 359 13.0 20.0 0.00 0.00 0.00 81 1006.1
20260507221016 68 359 14.0 20.0 0.00 0.00 0.00 81 1006.0